Location: Costa Valle Imagna
(45.8000°N, 9.5000°E)
Time: 19:48:55
(UTC+00:00)

STARLINK-1070 - Pass Details

Date: 17 February 2020
Orbit: 379 x 380 km, 53.0° (Epoch: 05 April)

Event Time Altitude Azimuth Distance (km) Brightness Sun altitude
Exits shadow 03:44:20 - 127° (SE) 1,526 6.4 -28.1°
Enters shadow 04:43:22 -67° 236° (SW) 12,168 10.4 -17.8°
Maximum altitude 05:19:33 63° 145° (SE) 433 3.3 -11.5°
